Location: Windsor
(43.2292°N, 89.3015°W)
Time: 05:07:03
(UTC+00:00)

NOAA 18 - Visible Passes

Search period start: 26 June 2022 00:00
Search period end: 06 July 2022 00:00
Orbit: 840 x 859 km, 98.9° (Epoch: 25 June)

Date Brightness Start Highest point End Pass type
(mag) Time Alt. Az. Time Alt. Az. Time Alt. Az.
26 Jun 5.3 03:15:46 19° SSE 03:19:46 66° ENE 03:25:15 10° N visible
26 Jun 7.3 04:57:46 11° SW 05:00:54 17° W 05:04:30 10° NW visible
27 Jun 5.6 03:03:34 16° SE 03:07:46 52° ENE 03:13:07 10° N visible
27 Jun 7.0 04:45:34 14° SW 04:48:43 22° W 04:52:58 10° NW visible
28 Jun 5.9 02:51:23 14° SE 02:55:48 42° ENE 03:00:58 10° N visible
28 Jun 6.7 04:33:23 17° SW 04:36:33 28° W 04:41:17 10° NW visible
29 Jun 6.2 02:39:11 11° SE 02:43:50 33° ENE 02:48:45 10° N visible
29 Jun 6.3 04:21:10 19° SSW 04:24:26 36° W 04:29:30 10° NNW visible
30 Jun 6.5 02:27:23 10° ESE 02:31:55 27° ENE 02:36:29 10° N visible
30 Jun 6.0 04:08:59 21° SSW 04:12:19 45° W 04:17:38 10° NNW visible
01 Jul 6.7 02:15:54 10° ESE 02:20:01 22° ENE 02:24:08 10° NNE visible
01 Jul 5.6 03:56:47 23° S 04:00:13 58° WSW 04:05:42 10° NNW visible
02 Jul 5.3 03:44:36 23° S 03:48:09 73° WSW 03:53:43 10° NNW visible
03 Jul 5.2 03:32:25 22° SSE 03:36:06 89° ENE 03:41:42 10° NNW visible
03 Jul 7.5 05:15:16 10° WSW 05:17:30 12° W 05:19:43 10° WNW visible
04 Jul 5.3 03:20:14 20° SSE 03:24:06 71° ENE 03:29:38 10° N visible
04 Jul 7.4 05:02:13 11° SW 05:05:17 16° W 05:08:39 10° NW visible
05 Jul 5.5 03:08:02 18° SE 03:12:05 56° ENE 03:17:31 10° N visible
05 Jul 7.1 04:50:02 14° SW 04:53:06 21° W 04:57:11 10° NW visible
